Weather in Wedjh

Saudi Arabia     26°13′48″N   36°28′03″E
temp.,
°C
wind,
m/s
gust,
m/s
humid.,
%
clouds,
%
prec.,
mm/h
press.,
hPa
HPBL,
m
2 july, sat
sat200:00+29wnw45540 0.0 100672
03:00+28nw34565 0.0 100557
06:00+27nne2253100 0.0 100513
09:00+32sw22400 0.0 1006414
12:00+33sw65420 0.0 1006665
15:00+33w66455 0.0 1005662
18:00+33nw57365 0.0 1004437
21:00+30wnw33503 0.0 100453
3 july, sun
sun300:00+29nw34575 0.0 100572
03:00+28nw33647 0.0 100446
06:00+26nw11639 0.0 100413
09:00+32s113714 0.0 1004419
12:00+34wsw5337100 0.0 1004872
15:00+34w773515 0.0 1003684
18:00+34nw67313 0.0 1002417
21:00+31nnw2235100 0.0 100313
4 july, mon
mon400:00+28wnw33560 0.0 100439
03:00+28nnw44545 0.0 100246
06:00+27n11475 0.0 100311
09:00+32sw21333 0.0 1004381
12:00+34sw54375 0.0 1004631
15:00+34w67435 0.0 1003594
18:00+33nw5837100 0.0 1002373
21:00+31wnw2235100 0.0 100311
5 july, tue
tue500:00+29nw3350100 0.0 100418
03:00+28wnw225888 0.0 100414
06:00+27ne11525 0.0 100411
09:00+33s32305 0.0 1005454
12:00+34sw663585 0.0 1005625
15:00+34w664373 0.0 1004557
18:00+36nw562695 0.0 1003737
21:00+31w2245100 0.0 100413
6 july, wed
wed600:00+30wnw3352100 0.0 100532
03:00+29nnw335782 0.0 100436
06:00+28nne11425 0.0 100511
09:00+34wsw22305 0.0 1005387
12:00+35wsw65320 0.0 1005707
15:00+34w67400 0.0 1004671
18:00+34wnw45330 0.0 1004466
21:00+30nw33480 0.0 100527